TIME,�g�[�m���b�g���n,�t���O,�g�[�mMJ�n,�t���O
2004/4/1 0:00,0,0,0,0
2004/4/1 0:15,0,0,0,0
2004/4/1 0:30,0,0,0,0
2004/4/1 0:45,0,0,0,0
2004/4/1 1:00,0,0,0,0
2004/4/1 1:15,0,0,0,0
2004/4/1 1:30,0,0,0,0
2004/4/1 1:45,0,0,0,0
2004/4/1 2:00,0,0,0,0
2004/4/1 2:15,0,0,0,0
2004/4/1 2:30,0,0,0,0
2004/4/1 2:45,0,0,0,0
2004/4/1 3:00,0,0,0,0
2004/4/1 3:15,0,0,0,0
2004/4/1 3:30,0,0,0,0
2004/4/1 3:45,0,0,0,0
2004/4/1 4:00,0,0,0,0
2004/4/1 4:15,0,0,0,0
2004/4/1 4:30,0,0,0,0
2004/4/1 4:45,0,0,0,0
2004/4/1 5:00,0,0,0,0
2004/4/1 5:15,0,0,0,0
2004/4/1 5:30,0,0,0,0
2004/4/1 5:45,0,0,0,0
2004/4/1 6:00,0,0,0,0
2004/4/1 6:15,0,0,0,0
2004/4/1 6:30,0.00003864,0,4.63,0
2004/4/1 6:45,0.0002415,0,29.57,0
2004/4/1 7:00,0.00022379,0,27.44,0
2004/4/1 7:15,0.00018354,0,22.5,0
2004/4/1 7:30,0.00015617,0,19.07,0
2004/4/1 7:45,0.00015134,0,18.48,0
2004/4/1 8:00,0.00014973,0,18.34,0
2004/4/1 8:15,0.00001288,0,1.58,0
2004/4/1 8:30,0,0,0,0
2004/4/1 8:45,0,0,0,0
2004/4/1 9:00,0,0,0,0
2004/4/1 9:15,0,0,0,0
2004/4/1 9:30,0,0,0,0
2004/4/1 9:45,0,0,0,0
2004/4/1 10:00,0,0,0,0
2004/4/1 10:15,0,0,0,0
2004/4/1 10:30,0,0,0,0
2004/4/1 10:45,0,0,0,0
2004/4/1 11:00,0,0,0,0
2004/4/1 11:15,0,0,0,0
2004/4/1 11:30,0,0,0,0
2004/4/1 11:45,0,0,0,0
2004/4/1 12:00,0,0,0,0
2004/4/1 12:15,0,0,0,0
2004/4/1 12:30,0,0,0,0
2004/4/1 12:45,0,0,0,0
2004/4/1 13:00,0,0,0,0
2004/4/1 13:15,0,0,0,0
2004/4/1 13:30,0,0,0,0
2004/4/1 13:45,0,0,0,0
2004/4/1 14:00,0,0,0,0
2004/4/1 14:15,0,0,0,0
2004/4/1 14:30,0,0,0,0
2004/4/1 14:45,0,0,0,0
2004/4/1 15:00,0,0,0,0
2004/4/1 15:15,0,0,0,0
2004/4/1 15:30,0,0,0,0
2004/4/1 15:45,0,0,0,0
2004/4/1 16:00,0,0,0,0
2004/4/1 16:15,0,0,0,0
2004/4/1 16:30,0,0,0,0
2004/4/1 16:45,0,0,0,0
2004/4/1 17:00,0,0,0,0
2004/4/1 17:15,0,0,0,0
2004/4/1 17:30,0,0,0,0
2004/4/1 17:45,0,0,0,0
2004/4/1 18:00,0,0,0,0
2004/4/1 18:15,0,0,0,0
2004/4/1 18:30,0,0,0,0
2004/4/1 18:45,0,0,0,0
2004/4/1 19:00,0,0,0,0
2004/4/1 19:15,0,0,0,0
2004/4/1 19:30,0,0,0,0
2004/4/1 19:45,0,0,0,0
2004/4/1 20:00,0,0,0,0
2004/4/1 20:15,0,0,0,0
2004/4/1 20:30,0,0,0,0
2004/4/1 20:45,0.0000161,0,2.01,0
2004/4/1 21:00,0.00022862,0,27.96,0
2004/4/1 21:15,0.00022701,0,27.68,0
2004/4/1 21:30,0.00017227,0,21.08,0
2004/4/1 21:45,0.00014329,0,17.56,0
2004/4/1 22:00,0.00014007,0,17.18,0
2004/4/1 22:15,0.00013846,0,16.85,0
2004/4/1 22:30,0.00013685,0,16.66,0
2004/4/1 22:45,0.00013685,0,16.69,0
2004/4/1 23:00,0.00013363,0,16.36,0
2004/4/1 23:15,0.00013041,0,15.91,0
2004/4/1 23:30,0.00013202,0,16.1,0
2004/4/1 23:45,0.00000483,0,0.57,0
2004/4/2 0:00,0,0,0,0
2004/4/2 0:15,0.00013202,0,16.1,0
2004/4/2 0:30,0.00009177,0,11.32,0
2004/4/2 0:45,0,0,0,0
2004/4/2 1:00,0.00012397,0,15.08,0
2004/4/2 1:15,0.00009177,0,11.18,0
2004/4/2 1:30,0,0,0,0
2004/4/2 1:45,0.0001288,0,15.84,0
2004/4/2 2:00,0.00010143,0,12.34,0
2004/4/2 2:15,0,0,0,0
2004/4/2 2:30,0.00011431,0,13.92,0
2004/4/2 2:45,0.00010948,0,13.45,0
2004/4/2 3:00,0,0,0,0
2004/4/2 3:15,0.00010787,0,13.19,0
2004/4/2 3:30,0.00011592,0,14.23,0
2004/4/2 3:45,0,0,0.07,0
2004/4/2 4:00,0.00009821,0,12.03,0
2004/4/2 4:15,0.00011914,0,14.56,0
2004/4/2 4:30,0.00001449,0,1.84,0
2004/4/2 4:45,0.00007245,0,8.96,0
2004/4/2 5:00,0.00013041,0,15.91,0
2004/4/2 5:15,0.00000966,0,1.23,0
2004/4/2 5:30,0.00008855,0,10.75,0
2004/4/2 5:45,0.00012397,0,15.13,0
2004/4/2 6:00,0.00000483,0,0.59,0
2004/4/2 6:15,0.0000966,0,11.72,0
2004/4/2 6:30,0.00011914,0,14.63,0
2004/4/2 6:45,0,0,0.02,0
2004/4/2 7:00,0.00010465,0,12.79,0
2004/4/2 7:15,0.00011592,0,14.25,0
2004/4/2 7:30,0,0,0.05,0
2004/4/2 7:45,0.00002415,0,2.88,0
2004/4/2 8:00,0,0,0,0
2004/4/2 8:15,0,0,0,0
2004/4/2 8:30,0,0,0,0
2004/4/2 8:45,0,0,0,0
2004/4/2 9:00,0,0,0,0
2004/4/2 9:15,0,0,0,0
2004/4/2 9:30,0,0,0,0
2004/4/2 9:45,0,0,0,0
2004/4/2 10:00,0,0,0,0
2004/4/2 10:15,0,0,0,0
2004/4/2 10:30,0,0,0,0
2004/4/2 10:45,0,0,0,0
2004/4/2 11:00,0,0,0,0
2004/4/2 11:15,0,0,0,0
2004/4/2 11:30,0,0,0,0
2004/4/2 11:45,0,0,0,0
2004/4/2 12:00,0,0,0,0
2004/4/2 12:15,0,0,0,0
2004/4/2 12:30,0,0,0,0
2004/4/2 12:45,0,0,0,0
2004/4/2 13:00,0,0,0,0
2004/4/2 13:15,0,0,0,0
2004/4/2 13:30,0,0,0,0
2004/4/2 13:45,0,0,0,0
2004/4/2 14:00,0,0,0,0
2004/4/2 14:15,0,0,0,0
2004/4/2 14:30,0,0,0,0
2004/4/2 14:45,0,0,0,0
2004/4/2 15:00,0,0,0,0
2004/4/2 15:15,0,0,0,0
2004/4/2 15:30,0,0,0,0
2004/4/2 15:45,0,0,0,0
2004/4/2 16:00,0,0,0,0
2004/4/2 16:15,0,0,0,0
2004/4/2 16:30,0,0,0,0
2004/4/2 16:45,0,0,0,0
2004/4/2 17:00,0.00000483,0,0.5,0
2004/4/2 17:15,0.00021252,0,25.9,0
2004/4/2 17:30,0.0001932,0,23.68,0
2004/4/2 17:45,0.0001127,0,13.71,0
2004/4/2 18:00,0.0000644,0,7.92,0
2004/4/2 18:15,0.00005796,0,7.07,0
2004/4/2 18:30,0.0001288,0,15.72,0
2004/4/2 18:45,0.00000966,0,1.16,0
2004/4/2 19:00,0.0001449,0,17.66,0
2004/4/2 19:15,0.00011109,0,13.5,0
2004/4/2 19:30,0.00009016,0,11.11,0
2004/4/2 19:45,0.00003059,0,3.66,0
2004/4/2 20:00,0.00013524,0,16.62,0
2004/4/2 20:15,0.00003059,0,3.66,0
2004/4/2 20:30,0.00011914,0,14.61,0
2004/4/2 20:45,0.00011592,0,14.09,0
2004/4/2 21:00,0.00009499,0,11.6,0
2004/4/2 21:15,0.00001932,0,2.27,0
2004/4/2 21:30,0.00014007,0,17.11,0
2004/4/2 21:45,0.00003864,0,4.77,0
2004/4/2 22:00,0.00010787,0,13.19,0
2004/4/2 22:15,0.00011592,0,14.09,0
2004/4/2 22:30,0.00010787,0,13.16,0
2004/4/2 22:45,0.00000966,0,1.11,0
2004/4/2 23:00,0.00013524,0,16.5,0
2004/4/2 23:15,0.0000322,0,3.88,0
2004/4/2 23:30,0.00011431,0,14.06,0
2004/4/2 23:45,0.00008855,0,10.92,0
2004/4/3 0:00,0,0,0,0
2004/4/3 0:15,0,0,0,0
2004/4/3 0:30,0,0,0,0
2004/4/3 0:45,0,0,0,0
2004/4/3 1:00,0,0,0,0
2004/4/3 1:15,0,0,0,0
2004/4/3 1:30,0,0,0,0
2004/4/3 1:45,0,0,0,0
2004/4/3 2:00,0,0,0,0
2004/4/3 2:15,0,0,0,0
2004/4/3 2:30,0,0,0,0
2004/4/3 2:45,0,0,0,0
2004/4/3 3:00,0,0,0,0
2004/4/3 3:15,0,0,0,0
2004/4/3 3:30,0,0,0,0
2004/4/3 3:45,0,0,0,0
2004/4/3 4:00,0,0,0,0
2004/4/3 4:15,0,0,0,0
2004/4/3 4:30,0,0,0,0
2004/4/3 4:45,0,0,0,0
2004/4/3 5:00,0,0,0,0
2004/4/3 5:15,0,0,0,0
2004/4/3 5:30,0,0,0,0
2004/4/3 5:45,0,0,0,0
2004/4/3 6:00,0,0,0,0
2004/4/3 6:15,0,0,0,0
2004/4/3 6:30,0,0,0,0
2004/4/3 6:45,0,0,0,0
2004/4/3 7:00,0,0,0,0
2004/4/3 7:15,0,0,0,0
2004/4/3 7:30,0,0,0,0
2004/4/3 7:45,0,0,0,0
2004/4/3 8:00,0,0,0,0
2004/4/3 8:15,0,0,0,0
2004/4/3 8:30,0,0,0,0
2004/4/3 8:45,0,0,0,0
2004/4/3 9:00,0,0,0,0
2004/4/3 9:15,0,0,0,0
2004/4/3 9:30,0,0,0,0
2004/4/3 9:45,0,0,0,0
2004/4/3 10:00,0,0,0,0
2004/4/3 10:15,0,0,0,0
2004/4/3 10:30,0,0,0,0
2004/4/3 10:45,0,0,0,0
2004/4/3 11:00,0,0,0,0
2004/4/3 11:15,0,0,0,0
2004/4/3 11:30,0,0,0,0
2004/4/3 11:45,0,0,0,0
2004/4/3 12:00,0,0,0,0
2004/4/3 12:15,0,0,0,0
2004/4/3 12:30,0,0,0,0
2004/4/3 12:45,0,0,0,0
2004/4/3 13:00,0,0,0,0
2004/4/3 13:15,0,0,0,0
2004/4/3 13:30,0,0,0,0
2004/4/3 13:45,0,0,0,0
2004/4/3 14:00,0,0,0,0
2004/4/3 14:15,0,0,0,0
2004/4/3 14:30,0,0,0,0
2004/4/3 14:45,0,0,0,0
2004/4/3 15:00,0,0,0,0
2004/4/3 15:15,0.00020447,0,24.93,0
2004/4/3 15:30,0.00022862,0,27.96,0
2004/4/3 15:45,0.00016583,0,20.33,0
2004/4/3 16:00,0.00013685,0,16.73,0
2004/4/3 16:15,0.00013202,0,16.17,0
2004/4/3 16:30,0.0001288,0,15.67,0
2004/4/3 16:45,0.00012558,0,15.46,0
2004/4/3 17:00,0.00012719,0,15.5,0
2004/4/3 17:15,0.00012558,0,15.43,0
2004/4/3 17:30,0.00012719,0,15.5,0
2004/4/3 17:45,0.00012558,0,15.39,0
2004/4/3 18:00,0.00012236,0,15.06,0
2004/4/3 18:15,0.00012236,0,14.96,0
2004/4/3 18:30,0.00012236,0,14.94,0
2004/4/3 18:45,0.00012075,0,14.87,0
2004/4/3 19:00,0.00012075,0,14.77,0
2004/4/3 19:15,0.00011753,0,14.39,0
2004/4/3 19:30,0.00011592,0,14.23,0
2004/4/3 19:45,0.00011592,0,14.09,0
2004/4/3 20:00,0.00012397,0,15.08,0
2004/4/3 20:15,0.00012236,0,14.96,0
2004/4/3 20:30,0.00011753,0,14.46,0
2004/4/3 20:45,0.00011592,0,14.09,0
2004/4/3 21:00,0.00011431,0,13.99,0
2004/4/3 21:15,0.00011592,0,14.2,0
2004/4/3 21:30,0.00011914,0,14.54,0
2004/4/3 21:45,0.00012075,0,14.68,0
2004/4/3 22:00,0.00004991,0,6.03,0
2004/4/3 22:15,0.00015939,0,19.4,0
2004/4/3 22:30,0.00011592,0,14.23,0
2004/4/3 22:45,0.00011431,0,13.97,0
2004/4/3 23:00,0.00011109,0,13.68,0
2004/4/3 23:15,0.00011592,0,14.11,0
2004/4/3 23:30,0.00009016,0,11.08,0
2004/4/3 23:45,0,0,0,0
2004/4/4 0:00,0,0,0,0
2004/4/4 0:15,0,0,0,0
2004/4/4 0:30,0,0,0,0
2004/4/4 0:45,0,0,0,0
2004/4/4 1:00,0,0,0,0
2004/4/4 1:15,0,0,0,0
2004/4/4 1:30,0,0,0,0
2004/4/4 1:45,0,0,0,0
2004/4/4 2:00,0,0,0,0
2004/4/4 2:15,0,0,0,0
2004/4/4 2:30,0,0,0,0
2004/4/4 2:45,0,0,0,0
2004/4/4 3:00,0,0,0,0
2004/4/4 3:15,0,0,0,0
2004/4/4 3:30,0,0,0,0
2004/4/4 3:45,0,0,0,0
2004/4/4 4:00,0,0,0,0
2004/4/4 4:15,0,0,0,0
2004/4/4 4:30,0,0,0,0
2004/4/4 4:45,0,0,0,0
2004/4/4 5:00,0,0,0,0
2004/4/4 5:15,0,0,0,0
2004/4/4 5:30,0,0,0,0
2004/4/4 5:45,0,0,0,0
2004/4/4 6:00,0,0,0,0
2004/4/4 6:15,0,0,0,0
2004/4/4 6:30,0,0,0,0
2004/4/4 6:45,0,0,0,0
2004/4/4 7:00,0,0,0,0
2004/4/4 7:15,0,0,0,0
2004/4/4 7:30,0,0,0,0
2004/4/4 7:45,0,0,0,0
2004/4/4 8:00,0.00001449,0,1.82,0
2004/4/4 8:15,0.0002254,0,27.65,0
2004/4/4 8:30,0.00006279,0,7.59,0
2004/4/4 8:45,0,0,0,0
2004/4/4 9:00,0,0,0,0
2004/4/4 9:15,0,0,0,0
2004/4/4 9:30,0,0,0,0
2004/4/4 9:45,0,0,0,0
2004/4/4 10:00,0,0,0,0
2004/4/4 10:15,0,0,0,0
2004/4/4 10:30,0,0,0,0
2004/4/4 10:45,0,0,0,0
2004/4/4 11:00,0,0,0,0
2004/4/4 11:15,0,0,0,0
2004/4/4 11:30,0,0,0,0
2004/4/4 11:45,0,0,0,0
2004/4/4 12:00,0,0,0,0
2004/4/4 12:15,0,0,0,0
2004/4/4 12:30,0.00014007,0,17.06,0
2004/4/4 12:45,0.00023023,0,28.15,0
2004/4/4 13:00,0.00015456,0,18.84,0
2004/4/4 13:15,0.00012558,0,15.43,0
2004/4/4 13:30,0.00012558,0,15.34,0
2004/4/4 13:45,0.00012558,0,15.27,0
2004/4/4 14:00,0.00012236,0,14.98,0
2004/4/4 14:15,0.00012075,0,14.82,0
2004/4/4 14:30,0.00012236,0,14.91,0
2004/4/4 14:45,0.00011914,0,14.65,0
2004/4/4 15:00,0.00011914,0,14.58,0
2004/4/4 15:15,0.00011753,0,14.46,0
2004/4/4 15:30,0.00011753,0,14.37,0
2004/4/4 15:45,0.00011753,0,14.37,0
2004/4/4 16:00,0.00011753,0,14.39,0
2004/4/4 16:15,0.00011753,0,14.32,0
2004/4/4 16:30,0.00011753,0,14.3,0
2004/4/4 16:45,0.00011592,0,14.25,0
2004/4/4 17:00,0.00011592,0,14.28,0
2004/4/4 17:15,0.00011592,0,14.23,0
2004/4/4 17:30,0.00011592,0,14.18,0
2004/4/4 17:45,0.00011592,0,14.13,0
2004/4/4 18:00,0.00011753,0,14.3,0
2004/4/4 18:15,0.00011431,0,13.97,0
2004/4/4 18:30,0.00011431,0,13.99,0
2004/4/4 18:45,0.00011431,0,13.94,0
2004/4/4 19:00,0.00011431,0,14.04,0
2004/4/4 19:15,0.00011753,0,14.35,0
2004/4/4 19:30,0.00011592,0,14.18,0
2004/4/4 19:45,0.00011592,0,14.11,0
2004/4/4 20:00,0.00011592,0,14.16,0
2004/4/4 20:15,0.00011592,0,14.18,0
2004/4/4 20:30,0.00011592,0,14.16,0
2004/4/4 20:45,0.00011592,0,14.11,0
2004/4/4 21:00,0.00011431,0,13.94,0
2004/4/4 21:15,0.0001127,0,13.85,0
2004/4/4 21:30,0.00011109,0,13.66,0
2004/4/4 21:45,0.00011109,0,13.54,0
2004/4/4 22:00,0.00011592,0,14.25,0
2004/4/4 22:15,0.00011914,0,14.54,0
2004/4/4 22:30,0.00011592,0,14.11,0
2004/4/4 22:45,0.0001127,0,13.87,0
2004/4/4 23:00,0.00011431,0,13.92,0
2004/4/4 23:15,0.00011431,0,13.92,0
2004/4/4 23:30,0.0001127,0,13.87,0
2004/4/4 23:45,0.0001127,0,13.85,0
2004/4/5 0:00,0.0001127,0,13.85,0
2004/4/5 0:15,0.0000322,0,3.9,0
2004/4/5 0:30,0,0,0,0
2004/4/5 0:45,0,0,0,0
2004/4/5 1:00,0,0,0,0
2004/4/5 1:15,0,0,0,0
2004/4/5 1:30,0,0,0,0
2004/4/5 1:45,0,0,0,0
2004/4/5 2:00,0,0,0,0
2004/4/5 2:15,0,0,0,0
2004/4/5 2:30,0,0,0,0
2004/4/5 2:45,0,0,0,0
2004/4/5 3:00,0,0,0,0
2004/4/5 3:15,0,0,0,0
2004/4/5 3:30,0,0,0,0
2004/4/5 3:45,0,0,0,0
2004/4/5 4:00,0,0,0,0
2004/4/5 4:15,0,0,0,0
2004/4/5 4:30,0,0,0,0
2004/4/5 4:45,0,0,0,0
2004/4/5 5:00,0,0,0,0
2004/4/5 5:15,0,0,0,0
2004/4/5 5:30,0,0,0,0
2004/4/5 5:45,0,0,0,0
2004/4/5 6:00,0.00000966,0,1.11,0
2004/4/5 6:15,0.00021413,0,26.21,0
2004/4/5 6:30,0.00020447,0,25.08,0
2004/4/5 6:45,0.00013846,0,16.97,0
2004/4/5 7:00,0.00012719,0,15.65,0
2004/4/5 7:15,0.00012397,0,15.08,0
2004/4/5 7:30,0.00012397,0,15.22,0
2004/4/5 7:45,0.00012236,0,14.91,0
2004/4/5 8:00,0.00011914,0,14.63,0
2004/4/5 8:15,0.00004991,0,6.05,0
2004/4/5 8:30,0,0,0,0
2004/4/5 8:45,0,0,0,0
2004/4/5 9:00,0,0,0,0
2004/4/5 9:15,0,0,0,0
2004/4/5 9:30,0,0,0,0
2004/4/5 9:45,0,0,0,0
2004/4/5 10:00,0,0,0,0
2004/4/5 10:15,0,0,0,0
2004/4/5 10:30,0,0,0,0
2004/4/5 10:45,0,0,0,0
2004/4/5 11:00,0,0,0,0
2004/4/5 11:15,0,0,0,0
2004/4/5 11:30,0,0,0,0
2004/4/5 11:45,0,0,0,0
2004/4/5 12:00,0,0,0,0
2004/4/5 12:15,0,0,0,0
2004/4/5 12:30,0,0,0,0
2004/4/5 12:45,0,0,0,0
2004/4/5 13:00,0,0,0,0
2004/4/5 13:15,0,0,0,0
2004/4/5 13:30,0,0,0,0
2004/4/5 13:45,0,0,0,0
2004/4/5 14:00,0,0,0,0
2004/4/5 14:15,0,0,0,0
2004/4/5 14:30,0,0,0,0
2004/4/5 14:45,0,0,0,0
2004/4/5 15:00,0,0,0,0
2004/4/5 15:15,0,0,0,0
2004/4/5 15:30,0,0,0,0
2004/4/5 15:45,0,0,0,0
2004/4/5 16:00,0,0,0,0
2004/4/5 16:15,0,0,0,0
2004/4/5 16:30,0,0,0,0
2004/4/5 16:45,0.00010948,0,13.47,0
2004/4/5 17:00,0.00022701,0,27.77,0
2004/4/5 17:15,0.00005796,0,7.07,0
2004/4/5 17:30,0.00020447,0,24.96,0
2004/4/5 17:45,0.00014168,0,17.4,0
2004/4/5 18:00,0.00011753,0,14.32,0
2004/4/5 18:15,0.00010948,0,13.47,0
2004/4/5 18:30,0.0001127,0,13.85,0
2004/4/5 18:45,0.00011592,0,14.09,0
2004/4/5 19:00,0.00010787,0,13.16,0
2004/4/5 19:15,0,0,0,0
2004/4/5 19:30,0.00001771,0,2.08,0
2004/4/5 19:45,0.00014973,0,18.41,0
2004/4/5 20:00,0.00004347,0,5.41,0
2004/4/5 20:15,0.00002093,0,2.58,0
2004/4/5 20:30,0.00014973,0,18.34,0
2004/4/5 20:45,0.00002898,0,3.59,0
2004/4/5 21:00,0.00004991,0,6.14,0
2004/4/5 21:15,0.00013846,0,17.02,0
2004/4/5 21:30,0.00000966,0,1.23,0
2004/4/5 21:45,0.00008855,0,10.9,0
2004/4/5 22:00,0.00012075,0,14.82,0
2004/4/5 22:15,0.00000966,0,1.13,0
2004/4/5 22:30,0.00008533,0,10.42,0
2004/4/5 22:45,0.00012558,0,15.34,0
2004/4/5 23:00,0.00002737,0,3.36,0
2004/4/5 23:15,0.00004186,0,5.11,0
2004/4/5 23:30,0.00006279,0,7.7,0
2004/4/5 23:45,0,0,0,0
2004/4/6 0:00,0,0,0,0
2004/4/6 0:15,0,0,0,0
2004/4/6 0:30,0,0,0,0
2004/4/6 0:45,0,0,0,0
2004/4/6 1:00,0,0,0,0
2004/4/6 1:15,0,0,0,0
2004/4/6 1:30,0,0,0,0
2004/4/6 1:45,0,0,0,0
2004/4/6 2:00,0,0,0,0
2004/4/6 2:15,0,0,0,0
2004/4/6 2:30,0,0,0,0
2004/4/6 2:45,0,0,0,0
2004/4/6 3:00,0,0,0,0
2004/4/6 3:15,0,0,0,0
2004/4/6 3:30,0,0,0,0
2004/4/6 3:45,0,0,0,0
2004/4/6 4:00,0,0,0,0
2004/4/6 4:15,0,0,0,0
2004/4/6 4:30,0,0,0,0
2004/4/6 4:45,0,0,0,0
2004/4/6 5:00,0,0,0,0
2004/4/6 5:15,0,0,0,0
2004/4/6 5:30,0,0,0,0
2004/4/6 5:45,0,0,0,0
2004/4/6 6:00,0,0,0,0
2004/4/6 6:15,0,0,0,0
2004/4/6 6:30,0.00019964,0,24.34,0
2004/4/6 6:45,0.00023023,0,28.2,0
2004/4/6 7:00,0.00005635,0,6.9,0
2004/4/6 7:15,0,0,0,0
2004/4/6 7:30,0,0,0,0
2004/4/6 7:45,0,0,0,0
2004/4/6 8:00,0,0,0,0
2004/4/6 8:15,0,0,0,0
2004/4/6 8:30,0,0,0,0
2004/4/6 8:45,0,0,0,0
2004/4/6 9:00,0,0,0,0
2004/4/6 9:15,0,0,0,0
2004/4/6 9:30,0,0,0,0
2004/4/6 9:45,0,0,0,0
2004/4/6 10:00,0,0,0,0
2004/4/6 10:15,0,0,0,0
2004/4/6 10:30,0,0,0,0
2004/4/6 10:45,0,0,0,0
2004/4/6 11:00,0,0,0,0
2004/4/6 11:15,0,0,0,0
2004/4/6 11:30,0,0,0,0
2004/4/6 11:45,0,0,0,0
2004/4/6 12:00,0,0,0,0
2004/4/6 12:15,0,0,0,0
2004/4/6 12:30,0,0,0,0
2004/4/6 12:45,0,0,0,0
2004/4/6 13:00,0,0,0,0
2004/4/6 13:15,0,0,0,0
2004/4/6 13:30,0,0,0,0
2004/4/6 13:45,0,0,0,0
2004/4/6 14:00,0,0,0,0
2004/4/6 14:15,0,0,0,0
2004/4/6 14:30,0,0,0,0
2004/4/6 14:45,0,0,0,0
2004/4/6 15:00,0,0,0,0
2004/4/6 15:15,0,0,0,0
2004/4/6 15:30,0,0,0,0
2004/4/6 15:45,0,0,0,0
2004/4/6 16:00,0,0,0,0
2004/4/6 16:15,0,0,0,0
2004/4/6 16:30,0,0,0,0
2004/4/6 16:45,0,0,0,0
2004/4/6 17:00,0,0,0,0
2004/4/6 17:15,0,0,0,0
2004/4/6 17:30,0,0,0,0
2004/4/6 17:45,0,0,0,0
2004/4/6 18:00,0,0,0,0
2004/4/6 18:15,0,0,0,0
2004/4/6 18:30,0,0,0,0
2004/4/6 18:45,0,0,0,0
2004/4/6 19:00,0,0,0,0
2004/4/6 19:15,0,0,0,0
2004/4/6 19:30,0,0,0,0
2004/4/6 19:45,0,0,0,0
2004/4/6 20:00,0,0,0,0
2004/4/6 20:15,0,0,0,0
2004/4/6 20:30,0,0,0,0
2004/4/6 20:45,0,0,0,0
2004/4/6 21:00,0,0,0,0
2004/4/6 21:15,0,0,0,0
2004/4/6 21:30,0,0,0,0
2004/4/6 21:45,0,0,0,0
2004/4/6 22:00,0,0,0,0
2004/4/6 22:15,0,0,0,0
2004/4/6 22:30,0,0,0,0
2004/4/6 22:45,0,0,0,0
2004/4/6 23:00,0,0,0,0
2004/4/6 23:15,0,0,0,0
2004/4/6 23:30,0,0,0,0
2004/4/6 23:45,0,0,0,0
2004/4/7 0:00,0,0,0,0
2004/4/7 0:15,0,0,0,0
2004/4/7 0:30,0,0,0,0
2004/4/7 0:45,0,0,0,0
2004/4/7 1:00,0,0,0,0
2004/4/7 1:15,0,0,0,0
2004/4/7 1:30,0,0,0,0
2004/4/7 1:45,0,0,0,0
2004/4/7 2:00,0,0,0,0
2004/4/7 2:15,0,0,0,0
2004/4/7 2:30,0,0,0,0
2004/4/7 2:45,0,0,0,0
2004/4/7 3:00,0,0,0,0
2004/4/7 3:15,0,0,0,0
2004/4/7 3:30,0,0,0,0
2004/4/7 3:45,0,0,0,0
2004/4/7 4:00,0,0,0,0
2004/4/7 4:15,0,0,0,0
2004/4/7 4:30,0,0,0,0
2004/4/7 4:45,0,0,0,0
2004/4/7 5:00,0,0,0,0
2004/4/7 5:15,0,0,0,0
2004/4/7 5:30,0,0,0,0
2004/4/7 5:45,0,0,0,0
2004/4/7 6:00,0,0,0,0
2004/4/7 6:15,0,0,0,0
2004/4/7 6:30,0,0,0,0
2004/4/7 6:45,0,0,0,0
2004/4/7 7:00,0,0,0,0
2004/4/7 7:15,0,0,0,0
2004/4/7 7:30,0,0,0,0
2004/4/7 7:45,0,0,0,0
2004/4/7 8:00,0,0,0,0
2004/4/7 8:15,0,0,0,0
2004/4/7 8:30,0,0,0,0
2004/4/7 8:45,0,0,0,0
2004/4/7 9:00,0,0,0,0
2004/4/7 9:15,0,0,0,0
2004/4/7 9:30,0,0,0,0
2004/4/7 9:45,0,0,0,0
2004/4/7 10:00,0,0,0,0
2004/4/7 10:15,0,0,0,0
2004/4/7 10:30,0,0,0,0
2004/4/7 10:45,0,0,0,0
2004/4/7 11:00,0,0,0,0
2004/4/7 11:15,0,0,0,0
2004/4/7 11:30,0,0,0,0
2004/4/7 11:45,0,0,0,0
2004/4/7 12:00,0,0,0,0
2004/4/7 12:15,0,0,0,0
2004/4/7 12:30,0,0,0,0
2004/4/7 12:45,0,0,0,0
2004/4/7 13:00,0,0,0,0
2004/4/7 13:15,0,0,0,0
2004/4/7 13:30,0,0,0,0
2004/4/7 13:45,0,0,0,0
2004/4/7 14:00,0,0,0,0
2004/4/7 14:15,0,0,0,0
2004/4/7 14:30,0,0,0,0
2004/4/7 14:45,0,0,0,0
2004/4/7 15:00,0,0,0,0
2004/4/7 15:15,0,0,0,0
2004/4/7 15:30,0,0,0,0
2004/4/7 15:45,0,0,0,0
2004/4/7 16:00,0,0,0,0
2004/4/7 16:15,0,0,0,0
2004/4/7 16:30,0,0,0,0
2004/4/7 16:45,0,0,0,0
2004/4/7 17:00,0,0,0,0
2004/4/7 17:15,0,0,0,0
2004/4/7 17:30,0,0,0,0
2004/4/7 17:45,0,0,0,0
2004/4/7 18:00,0,0,0,0
2004/4/7 18:15,0,0,0,0
2004/4/7 18:30,0,0,0,0
2004/4/7 18:45,0,0,0,0
2004/4/7 19:00,0,0,0,0
2004/4/7 19:15,0,0,0,0
2004/4/7 19:30,0,0,0,0
2004/4/7 19:45,0,0,0,0
2004/4/7 20:00,0,0,0,0
2004/4/7 20:15,0,0,0,0
2004/4/7 20:30,0,0,0,0
2004/4/7 20:45,0,0,0,0
2004/4/7 21:00,0,0,0,0
2004/4/7 21:15,0,0,0,0
2004/4/7 21:30,0,0,0,0
2004/4/7 21:45,0,0,0,0
2004/4/7 22:00,0,0,0,0
2004/4/7 22:15,0,0,0,0
2004/4/7 22:30,0,0,0,0
2004/4/7 22:45,0.00011914,0,14.63,0
2004/4/7 23:00,0.00023667,0,28.88,0
2004/4/7 23:15,0.00013524,0,16.62,0
2004/4/7 23:30,0,0,0,0
2004/4/7 23:45,0,0,0,0
2004/4/8 0:00,0,0,0,0
2004/4/8 0:15,0,0,0,0
2004/4/8 0:30,0,0,0,0
2004/4/8 0:45,0,0,0,0
2004/4/8 1:00,0,0,0,0
2004/4/8 1:15,0,0,0,0
2004/4/8 1:30,0,0,0,0
2004/4/8 1:45,0,0,0,0
2004/4/8 2:00,0,0,0,0
2004/4/8 2:15,0,0,0,0
2004/4/8 2:30,0,0,0,0
2004/4/8 2:45,0,0,0,0
2004/4/8 3:00,0,0,0,0
2004/4/8 3:15,0,0,0,0
2004/4/8 3:30,0,0,0,0
2004/4/8 3:45,0,0,0,0
2004/4/8 4:00,0,0,0,0
2004/4/8 4:15,0,0,0,0
2004/4/8 4:30,0,0,0,0
2004/4/8 4:45,0,0,0,0
2004/4/8 5:00,0,0,0,0
2004/4/8 5:15,0,0,0,0
2004/4/8 5:30,0,0,0,0
2004/4/8 5:45,0,0,0,0
2004/4/8 6:00,0,0,0,0
2004/4/8 6:15,0,0,0,0
2004/4/8 6:30,0,0,0,0
2004/4/8 6:45,0,0,0,0
2004/4/8 7:00,0,0,0,0
2004/4/8 7:15,0,0,0,0
2004/4/8 7:30,0,0,0,0
2004/4/8 7:45,0,0,0,0
2004/4/8 8:00,0,0,0,0
2004/4/8 8:15,0,0,0,0
2004/4/8 8:30,0,0,0,0
2004/4/8 8:45,0,0,0,0
2004/4/8 9:00,0,0,0,0
2004/4/8 9:15,0,0,0,0
2004/4/8 9:30,0,0,0,0
2004/4/8 9:45,0,0,0,0
2004/4/8 10:00,0,0,0,0
2004/4/8 10:15,0,0,0,0
2004/4/8 10:30,0,0,0,0
2004/4/8 10:45,0,0,0,0
2004/4/8 11:00,0,0,0,0
2004/4/8 11:15,0,0,0,0
2004/4/8 11:30,0,0,0,0
2004/4/8 11:45,0,0,0,0
2004/4/8 12:00,0,0,0,0
2004/4/8 12:15,0,0,0,0
2004/4/8 12:30,0,0,0,0
2004/4/8 12:45,0,0,0,0
2004/4/8 13:00,0,0,0,0
2004/4/8 13:15,0,0,0,0
2004/4/8 13:30,0,0,0,0
2004/4/8 13:45,0,0,0,0
2004/4/8 14:00,0,0,0,0
2004/4/8 14:15,0,0,0,0
2004/4/8 14:30,0,0,0,0
2004/4/8 14:45,0,0,0,0
2004/4/8 15:00,0,0,0,0
2004/4/8 15:15,0,0,0,0
2004/4/8 15:30,0,0,0,0
2004/4/8 15:45,0,0,0,0
2004/4/8 16:00,0,0,0,0
2004/4/8 16:15,0,0,0,0
2004/4/8 16:30,0,0,0,0
2004/4/8 16:45,0,0,0,0
2004/4/8 17:00,0.00014329,0,17.49,0
2004/4/8 17:15,0.00021896,0,26.83,0
2004/4/8 17:30,0.00013846,0,16.88,0
2004/4/8 17:45,0.00011431,0,13.94,0
2004/4/8 18:00,0.0001127,0,13.8,0
2004/4/8 18:15,0.00011109,0,13.54,0
2004/4/8 18:30,0.00011109,0,13.54,0
2004/4/8 18:45,0.00011109,0,13.54,0
2004/4/8 19:00,0.00011109,0,13.59,0
2004/4/8 19:15,0.00011431,0,13.9,0
2004/4/8 19:30,0.00011431,0,13.9,0
2004/4/8 19:45,0.00011109,0,13.59,0
2004/4/8 20:00,0.00011109,0,13.52,0
2004/4/8 20:15,0.00011109,0,13.52,0
2004/4/8 20:30,0.00012558,0,15.39,0
2004/4/8 20:45,0.00014812,0,18.15,0
2004/4/8 21:00,0.00004508,0,5.44,0
2004/4/8 21:15,0.00012558,0,15.39,0
2004/4/8 21:30,0.00012075,0,14.68,0
2004/4/8 21:45,0.00011592,0,14.18,0
2004/4/8 22:00,0.00011753,0,14.46,0
2004/4/8 22:15,0.0001127,0,13.73,0
2004/4/8 22:30,0.00010948,0,13.47,0
2004/4/8 22:45,0.00010626,0,13.07,0
2004/4/8 23:00,0.00002898,0,3.52,0
2004/4/8 23:15,0,0,0,0
2004/4/8 23:30,0,0,0,0
2004/4/8 23:45,0,0,0,0
2004/4/9 0:00,0,0,0,0
2004/4/9 0:15,0,0,0,0
2004/4/9 0:30,0,0,0,0
2004/4/9 0:45,0,0,0,0
2004/4/9 1:00,0,0,0,0
2004/4/9 1:15,0,0,0,0
2004/4/9 1:30,0,0,0,0
2004/4/9 1:45,0,0,0,0
2004/4/9 2:00,0,0,0,0
2004/4/9 2:15,0,0,0,0
2004/4/9 2:30,0,0,0,0
2004/4/9 2:45,0,0,0,0
2004/4/9 3:00,0,0,0,0
2004/4/9 3:15,0,0,0,0
2004/4/9 3:30,0,0,0,0
2004/4/9 3:45,0,0,0,0
2004/4/9 4:00,0,0,0,0
2004/4/9 4:15,0,0,0,0
2004/4/9 4:30,0,0,0,0
2004/4/9 4:45,0,0,0,0
2004/4/9 5:00,0,0,0,0
2004/4/9 5:15,0,0,0,0
2004/4/9 5:30,0,0,0,0
2004/4/9 5:45,0,0,0,0
2004/4/9 6:00,0,0,0,0
2004/4/9 6:15,0,0,0,0
2004/4/9 6:30,0.00014007,0,17.18,0
2004/4/9 6:45,0.00023023,0,28.15,0
2004/4/9 7:00,0.00020286,0,24.91,0
2004/4/9 7:15,0.00016422,0,20.07,0
2004/4/9 7:30,0.00014812,0,18.2,0
2004/4/9 7:45,0.00014651,0,17.84,0
2004/4/9 8:00,0.00014168,0,17.3,0
2004/4/9 8:15,0.00013685,0,16.69,0
2004/4/9 8:30,0.0000644,0,7.96,0
2004/4/9 8:45,0,0,0,0
2004/4/9 9:00,0,0,0,0
2004/4/9 9:15,0,0,0,0
2004/4/9 9:30,0,0,0,0
2004/4/9 9:45,0,0,0,0
2004/4/9 10:00,0,0,0,0
2004/4/9 10:15,0,0,0,0
2004/4/9 10:30,0,0,0,0
2004/4/9 10:45,0,0,0,0
2004/4/9 11:00,0,0,0,0
2004/4/9 11:15,0,0,0,0
2004/4/9 11:30,0,0,0,0
2004/4/9 11:45,0,0,0,0
2004/4/9 12:00,0,0,0,0
2004/4/9 12:15,0,0,0,0
2004/4/9 12:30,0,0,0,0
2004/4/9 12:45,0,0,0,0
2004/4/9 13:00,0,0,0,0
2004/4/9 13:15,0,0,0,0
2004/4/9 13:30,0,0,0,0
2004/4/9 13:45,0,0,0,0
2004/4/9 14:00,0,0,0,0
2004/4/9 14:15,0,0,0,0
2004/4/9 14:30,0,0,0,0
2004/4/9 14:45,0,0,0,0
2004/4/9 15:00,0,0,0,0
2004/4/9 15:15,0,0,0,0
2004/4/9 15:30,0,0,0,0
2004/4/9 15:45,0,0,0,0
2004/4/9 16:00,0,0,0,0
2004/4/9 16:15,0,0,0,0
2004/4/9 16:30,0,0,0,0
2004/4/9 16:45,0,0,0,0
2004/4/9 17:00,0,0,0,0
2004/4/9 17:15,0,0,0,0
2004/4/9 17:30,0,0,0,0
2004/4/9 17:45,0,0,0,0
2004/4/9 18:00,0,0,0,0
2004/4/9 18:15,0,0,0,0
2004/4/9 18:30,0,0,0,0
2004/4/9 18:45,0,0,0,0
2004/4/9 19:00,0,0,0,0
2004/4/9 19:15,0,0,0,0
2004/4/9 19:30,0,0,0,0
2004/4/9 19:45,0,0,0,0
2004/4/9 20:00,0,0,0,0
2004/4/9 20:15,0,0,0,0
2004/4/9 20:30,0,0,0,0
2004/4/9 20:45,0,0,0,0
2004/4/9 21:00,0,0,0,0
2004/4/9 21:15,0,0,0,0
2004/4/9 21:30,0,0,0,0
2004/4/9 21:45,0,0,0,0
2004/4/9 22:00,0,0,0,0
2004/4/9 22:15,0,0,0,0
2004/4/9 22:30,0.00005152,0,6.33,0
2004/4/9 22:45,0.0002415,0,29.57,0
2004/4/9 23:00,0.0002093,0,25.57,0
2004/4/9 23:15,0.00014651,0,17.92,0
2004/4/9 23:30,0.00012236,0,14.89,0
2004/4/9 23:45,0.00010304,0,12.53,0
2004/4/10 0:00,0,0,0,0
2004/4/10 0:15,0,0,0,0
2004/4/10 0:30,0,0,0,0
2004/4/10 0:45,0,0,0,0
2004/4/10 1:00,0,0,0,0
2004/4/10 1:15,0,0,0,0
2004/4/10 1:30,0,0,0,0
2004/4/10 1:45,0,0,0,0
2004/4/10 2:00,0,0,0,0
2004/4/10 2:15,0,0,0,0
2004/4/10 2:30,0,0,0,0
2004/4/10 2:45,0,0,0,0
2004/4/10 3:00,0,0,0,0
2004/4/10 3:15,0,0,0,0
2004/4/10 3:30,0,0,0,0
2004/4/10 3:45,0,0,0,0
2004/4/10 4:00,0,0,0,0
2004/4/10 4:15,0,0,0,0
2004/4/10 4:30,0,0,0,0
2004/4/10 4:45,0,0,0,0
2004/4/10 5:00,0,0,0,0